Regional Weather Roundup
Issued by NWS

Home | Current Version | Previous Version | Graphics & Text | Print | Product List | Glossary On
Versions: 1 2 3 4 5 6 7 8 9 10 11 12 13 14 15 16 17 18 19 20 21 22 23 24 25 26 27 28 29 30 31 32 33 34 35 36 37 38 39 40 41 42 43 44 45 46 47 48 49 50
000
ASUS43 KOAX 291702
RWRNE

WEATHER ROUNDUP FOR NEBRASKA
NATIONAL WEATHER SERVICE OMAHA NE
1100 AM CST THU JAN 29 2015

NOTES: SATELLITE DATA IS BEING USED TO AUGMENT CLOUD COVER ABOVE
       12000 FEET.
       "FAIR" INDICATES FEW OR NO CLOUDS BELOW 12,000 FEET WITH NO
       SIGNIFICANT WEATHER AND/OR OBSTRUCTIONS TO VISIBILITY.

  * THESE STATIONS DO NOT REPORT WEATHER SUCH AS RAIN...SNOW OR FOG.

NEZ001>004-019>022-054>056-291800-
NEBRASKA PANHANDLE

CITY           SKY/WX    TMP DP  RH WIND       PRES   REMARKS
SCOTTSBLUFF    SUNNY     37  23  56 NW14      30.51R WCI  28
ALLIANCE       SUNNY     34  25  69 N10       30.48R WCI  26
CHADRON        SUNNY     36  27  69 NW13      30.51S WCI  27
SIDNEY         SUNNY     39  20  46 N20       30.49R WCI  29
$$

NEZ057>060-069>072-079>082-291800-
SOUTHWEST NEBRASKA

CITY           SKY/WX    TMP DP  RH WIND       PRES   REMARKS
NORTH PLATTE   SUNNY     37  24  59 N16G22    30.49R WCI  28
IMPERIAL       SUNNY     36  24  62 N17       30.52R WCI  26
MCCOOK         SUNNY     40  24  53 N18       30.51R WCI  31
$$

NEZ005>010-023>029-035>040-094-291800-
NORTH CENTRAL NEBRASKA

CITY           SKY/WX    TMP DP  RH WIND       PRES   REMARKS
VALENTINE      SUNNY     37  23  56 NW15G25   30.48R WCI  28
BROKEN BOW     PTSUNNY   37  24  59 N23G30    30.46R WCI  26
ORD            CLOUDY    38  24  57 N18G29    30.45R WCI  28
$$

NEZ041-046>049-061>064-073>077-083>087-291800-
SOUTH CENTRAL NEBRASKA

CITY           SKY/WX    TMP DP  RH WIND       PRES   REMARKS
GRAND ISLAND   CLOUDY    38  25  59 N26G35    30.45R WCI  26
HASTINGS       CLOUDY    39  24  55 N24G31    30.46R WCI  28
KEARNEY *      CLOUDY    39  25  56 N22       30.47R WCI  29
$$

NEZ011>018-030>034-042>045-291800-
NORTHEAST NEBRASKA

CITY           SKY/WX    TMP DP  RH WIND       PRES   REMARKS
NORFOLK        CLOUDY    36  28  73 NW16      30.41R WCI  26
COLUMBUS *     CLOUDY    37  25  60 N22       30.44R WCI  27
TEKAMAH        CLOUDY    37  26  64 NW25      30.40R WCI  25
$$

NEZ050>053-065>068-078-088>093-291800-
SOUTHEAST NEBRASKA

CITY           SKY/WX    TMP DP  RH WIND       PRES   REMARKS
LINCOLN        CLOUDY    39  28  64 N26G36    30.42R WCI  28
OMAHA EPPLEY   CLOUDY    37  26  64 N23G31    30.38R WCI  26
FALLS CITY     CLOUDY    39  27  62 NW21G38   30.36R WCI  29
$$

NEZ044-045-051>053-067-291800-
OMAHA AREA

CITY           SKY/WX    TMP DP  RH WIND       PRES   REMARKS
OMAHA EPPLEY   CLOUDY    37  26  64 N23G31    30.38R WCI  26
OFFUTT AFB     CLOUDY    38  26  61 N16G33    30.38R WCI  29
$$



USA.gov is the U.S. government's official web portal to all federal, state and local government web resources and services.